Montrose, CO

1:35 AM MDT on March 29, 2017 (GMT -0600)
Montrose Regional

Weather History for KMTJ - September, 2011

Change the Weather History Date:

Monday, September 12, 2011

  Actual Average Record
Temperature  
Mean Temperature 65 °F 64 °F  
Max Temperature 77 °F 79 °F 89 °F (2001)
Min Temperature 55 °F 49 °F 39 °F (2003)
Degree Days  
Heating Degree Days 0 3  
Month to date heating degree days 20  
Since 1 July heating degree days 25  
Cooling Degree Days 0 1  
Month to date cooling degree days 27  
Year to date cooling degree days 632  
Growing Degree Days 15 (Base 50)    
Moisture  
Dew Point 45 °F    
Average Humidity 54    
Maximum Humidity 87    
Minimum Humidity 28    
Precipitation  
Precipitation 0.02 in 0.04 in 0.38 in (1998)
Month to date precipitation 0.45  
Year to date precipitation 7.78  
Sea Level Pressure  
Sea Level Pressure 30.17 in    
Wind  
Wind Speed 7 mph (SE)    
Max Wind Speed 10 mph    
Max Gust Speed -    
Visibility 10 miles    
Events Rain    
T = Trace of Precipitation, MM = Missing Value Source: NWS Daily Summary

Daily Weather History Graph

Daily Weather History Graph

Search for Another Location

Airport or City:

Trip Planner

Search our weather history database for the weather conditions in past years. The results will help you decide how hot, cold, wet, or windy it might be!

Date:

Astronomy

Sep. 12, 2011 Rise Set
Actual Time 6:50 AM MDT 7:24 PM MDT
Civil Twilight 6:23 AM MDT 7:51 PM MDT
Nautical Twilight 5:52 AM MDT 8:22 PM MDT
Astronomical Twilight 5:19 AM MDT 8:54 PM MDT
Moon 7:16 PM MDT (9/12) 7:08 AM MDT (9/12)
Length of Visible Light 13h 27m
Length of Day
12h 34m
Full, 100% of the Moon is Illuminated
Sep 12
Full
Sep 20
Last Quarter
Sep 27
New
Oct 3
First Quarter
Oct 11
Full

Hourly Weather History & Observations

Time (MDT) Temp. Dew Point Humidity Pressure Visibility Wind Dir Wind Speed Gust Speed Precip Events Conditions
12:53 AM 55.9 °F 45.0 °F 67% 30.14 in 10.0 mi SE 10.4 mph - N/A   Clear
1:53 AM 55.0 °F 46.0 °F 72% 30.17 in 10.0 mi ESE 5.8 mph - N/A   Overcast
2:53 AM 57.0 °F 46.0 °F 67% 30.17 in 10.0 mi SE 5.8 mph - N/A   Overcast
3:53 AM 57.0 °F 51.1 °F 81% 30.19 in 10.0 mi SSE 10.4 mph - 0.00 in Rain Light Rain
4:53 AM 55.9 °F 52.0 °F 87% 30.20 in 10.0 mi ESE 6.9 mph - 0.02 in   Overcast
5:53 AM 55.9 °F 52.0 °F 87% 30.19 in 10.0 mi SSE 5.8 mph - 0.00 in   Mostly Cloudy
6:53 AM 55.0 °F 51.1 °F 86% 30.23 in 10.0 mi Calm Calm - N/A   Scattered Clouds
7:53 AM 55.9 °F 50.0 °F 80% 30.25 in 10.0 mi ESE 5.8 mph - N/A   Overcast
8:53 AM 57.9 °F 50.0 °F 75% 30.26 in 10.0 mi East 3.5 mph - N/A   Overcast
10:53 AM 66.0 °F 48.0 °F 52% 30.25 in 10.0 mi SE 3.5 mph - N/A   Clear
11:53 AM 70.0 °F 44.1 °F 39% 30.22 in 10.0 mi Calm Calm - N/A   Clear
12:53 PM 72.0 °F 42.1 °F 34% 30.19 in 10.0 mi Calm Calm - N/A   Mostly Cloudy
1:53 PM 75.0 °F 41.0 °F 29% 30.16 in 10.0 mi Variable 3.5 mph - N/A   Partly Cloudy
2:53 PM 75.9 °F 41.0 °F 29% 30.12 in 10.0 mi North 4.6 mph - N/A   Partly Cloudy
3:53 PM 75.9 °F 41.0 °F 29% 30.09 in 10.0 mi North 8.1 mph - N/A   Clear
4:53 PM 73.9 °F 43.0 °F 33% 30.09 in 10.0 mi NNW 8.1 mph - N/A   Mostly Cloudy
5:53 PM 75.0 °F 43.0 °F 32% 30.09 in 10.0 mi North 4.6 mph - N/A   Scattered Clouds
6:53 PM 73.0 °F 37.9 °F 28% 30.11 in 10.0 mi SW 5.8 mph - N/A   Clear
7:53 PM 69.1 °F 37.9 °F 32% 30.13 in 10.0 mi South 9.2 mph - N/A   Partly Cloudy
9:53 PM 63.0 °F 44.1 °F 50% 30.16 in 10.0 mi SSE 10.4 mph - N/A   Clear
10:53 PM 61.0 °F 44.1 °F 54% 30.15 in 10.0 mi SSE 8.1 mph - N/A   Clear
11:53 PM 60.1 °F 43.0 °F 53% 30.14 in 10.0 mi SE 10.4 mph - N/A   Clear